When you browse on this site, cookies collect data to enhance your experience and personalize the content and advertising you see.
Visit our Privacy Policy to learn more. By continuing to use the site, you agree to this use of cookies and data.
  • en Suisse
  • Liste des pays
  • À 7 jours
  • Température de l'eau
  • Carte météo
  • Widgets météo
  • user-avatar
    Se connecter

    Météo par heure à Albany

    Ce jour, 26 Août, Lundi

    Heure Température Précipitation Vent Pression Humidité
    00:00 +7°C° 0 mm 2 m/s 767 mmHg 89%
    01:00 +7°C° 0 mm 2 m/s 766 mmHg 89%
    02:00 +7°C° 0 mm 2 m/s 766 mmHg 86%
    03:00 +6°C° 0 mm 2 m/s 766 mmHg 87%
    04:00 +6°C° 0 mm 2 m/s 766 mmHg 87%
    05:00 +6°C° 0 mm 2 m/s 766 mmHg 87%
    06:00 +7°C° 0 mm 2 m/s 766 mmHg 85%
    07:00 +8°C° 0 mm 2 m/s 767 mmHg 83%
    08:00 +9°C° 0 mm 2 m/s 767 mmHg 79%
    09:00 +12°C° 0 mm 2 m/s 767 mmHg 72%
    10:00 +14°C° 0 mm 2 m/s 767 mmHg 66%
    11:00 +16°C° 0 mm 2 m/s 767 mmHg 59%
    12:00 +17°C° 0 mm 2 m/s 766 mmHg 57%
    13:00 +17°C° 0 mm 2 m/s 766 mmHg 56%
    14:00 +18°C° 0 mm 1 m/s 765 mmHg 55%
    15:00 +16°C° 0 mm 1 m/s 765 mmHg 60%
    16:00 +16°C° 0 mm 1 m/s 765 mmHg 66%
    17:00 +15°C° 0 mm 1 m/s 765 mmHg 71%
    18:00 +13°C° 0 mm 1 m/s 765 mmHg 76%
    19:00 +11°C° 0 mm 1 m/s 765 mmHg 80%
    20:00 +10°C° 0 mm 1 m/s 765 mmHg 84%
    21:00 +9°C° 0 mm 2 m/s 765 mmHg 85%
    22:00 +8°C° 0 mm 2 m/s 765 mmHg 86%
    23:00 +8°C° 0 mm 2 m/s 765 mmHg 87%

    Demain, 27 Août, Mardi

    Heure Température Précipitation Vent Pression Humidité
    00:00 +8°C° 0 mm 2 m/s 765 mmHg 86%
    01:00 +8°C° 0 mm 2 m/s 765 mmHg 85%
    02:00 +8°C° 0 mm 2 m/s 765 mmHg 84%
    03:00 +8°C° 0 mm 2 m/s 765 mmHg 83%
    04:00 +8°C° 0 mm 2 m/s 765 mmHg 82%
    05:00 +8°C° 0 mm 2 m/s 765 mmHg 80%
    06:00 +8°C° 0 mm 2 m/s 765 mmHg 79%
    07:00 +9°C° 0 mm 2 m/s 765 mmHg 77%
    08:00 +10°C° 0 mm 2 m/s 765 mmHg 75%
    09:00 +13°C° 0 mm 2 m/s 765 mmHg 70%
    10:00 +15°C° 0 mm 2 m/s 765 mmHg 65%
    11:00 +17°C° 0 mm 2 m/s 764 mmHg 59%
    12:00 +17°C° 0 mm 2 m/s 764 mmHg 56%
    13:00 +18°C° 0 mm 2 m/s 763 mmHg 54%
    14:00 +20°C° 0 mm 1 m/s 763 mmHg 51%
    15:00 +18°C° 0 mm 2 m/s 763 mmHg 57%
    16:00 +17°C° 0 mm 2 m/s 763 mmHg 64%
    17:00 +16°C° 0 mm 2 m/s 763 mmHg 70%
    18:00 +15°C° 0 mm 2 m/s 763 mmHg 72%
    19:00 +13°C° 0 mm 3 m/s 763 mmHg 74%
    20:00 +11°C° 0 mm 3 m/s 764 mmHg 77%
    21:00 +11°C° 0 mm 3 m/s 763 mmHg 75%
    22:00 +11°C° 0 mm 4 m/s 763 mmHg 74%
    23:00 +10°C° 0 mm 4 m/s 763 mmHg 73%

    Après-demain, 28 Août, Mercredi

    Heure Température Précipitation Vent Pression Humidité
    00:00 +10°C° 0 mm 4 m/s 762 mmHg 73%
    01:00 +9°C° 0 mm 5 m/s 762 mmHg 74%
    02:00 +9°C° 0 mm 5 m/s 762 mmHg 74%
    03:00 +9°C° 0 mm 5 m/s 761 mmHg 72%
    04:00 +10°C° 0 mm 4 m/s 761 mmHg 69%
    05:00 +8°C° 0 mm 4 m/s 761 mmHg 67%
    06:00 +10°C° 0 mm 4 m/s 761 mmHg 64%
    07:00 +10°C° 0 mm 4 m/s 761 mmHg 61%
    08:00 +11°C° 0 mm 4 m/s 761 mmHg 59%
    09:00 +13°C° 0 mm 4 m/s 760 mmHg 57%
    10:00 +17°C° 0 mm 4 m/s 760 mmHg 55%
    11:00 +19°C° 0 mm 4 m/s 760 mmHg 53%
    12:00 +20°C° 0 mm 4 m/s 759 mmHg 55%
    13:00 +21°C° 0 mm 3 m/s 759 mmHg 56%
    14:00 +22°C° 0 mm 3 m/s 758 mmHg 58%
    15:00 +21°C° 0 mm 3 m/s 758 mmHg 63%
    16:00 +20°C° 0 mm 3 m/s 758 mmHg 68%
    17:00 +19°C° 0 mm 3 m/s 758 mmHg 72%
    18:00 +18°C° 0 mm 3 m/s 757 mmHg 74%
    19:00 +17°C° 0 mm 3 m/s 757 mmHg 76%
    20:00 +14°C° 0 mm 4 m/s 757 mmHg 78%
    21:00 +14°C° 0 mm 4 m/s 757 mmHg 76%
    22:00 +14°C° 0 mm 4 m/s 756 mmHg 74%
    23:00 +14°C° 0 mm 4 m/s 756 mmHg 72%

    29 Août, Jeudi

    Heure Température Précipitation Vent Pression Humidité
    00:00 +14°C° 0 mm 4 m/s 755 mmHg 69%
    01:00 +14°C° 0 mm 4 m/s 754 mmHg 66%
    02:00 +14°C° 0 mm 4 m/s 753 mmHg 63%
    03:00 +14°C° 0 mm 5 m/s 753 mmHg 59%
    04:00 +14°C° 0 mm 5 m/s 752 mmHg 56%
    05:00 +15°C° 0 mm 6 m/s 752 mmHg 52%
    06:00 +15°C° 0 mm 6 m/s 752 mmHg 57%
    07:00 +15°C° 0 mm 6 m/s 751 mmHg 61%
    08:00 +15°C° 0 mm 6 m/s 751 mmHg 65%
    09:00 +16°C° 0 mm 7 m/s 751 mmHg 63%
    10:00 +18°C° 0 mm 7 m/s 751 mmHg 62%
    11:00 +21°C° 0 mm 8 m/s 751 mmHg 61%
    12:00 +22°C° 0.1 mm 8 m/s 750 mmHg 62%
    13:00 +22°C° 0.1 mm 7 m/s 749 mmHg 62%
    14:00 +22°C° 0.1 mm 7 m/s 749 mmHg 63%
    15:00 +21°C° 0.4 mm 7 m/s 749 mmHg 71%
    16:00 +19°C° 0.4 mm 6 m/s 749 mmHg 78%
    17:00 +17°C° 0.4 mm 6 m/s 748 mmHg 85%
    18:00 +16°C° 0.4 mm 5 m/s 748 mmHg 88%
    19:00 +15°C° 0.4 mm 5 m/s 748 mmHg 91%
    20:00 +15°C° 0.4 mm 5 m/s 747 mmHg 93%
    21:00 +14°C° 2.5 mm 6 m/s 747 mmHg 93%
    22:00 +13°C° 2.5 mm 6 m/s 747 mmHg 92%
    23:00 +12°C° 2.5 mm 7 m/s 747 mmHg 92%

    30 Août, Vendredi

    Heure Température Précipitation Vent Pression Humidité
    00:00 +12°C° 0 mm 7 m/s 746 mmHg 92%
    01:00 +11°C° 0 mm 6 m/s 746 mmHg 92%
    02:00 +11°C° 0 mm 6 m/s 745 mmHg 92%
    03:00 +11°C° 0.4 mm 7 m/s 745 mmHg 91%
    04:00 +11°C° 0.4 mm 8 m/s 745 mmHg 90%
    05:00 +10°C° 0.4 mm 8 m/s 745 mmHg 90%
    06:00 +10°C° 0.1 mm 9 m/s 746 mmHg 87%
    07:00 +10°C° 0.1 mm 9 m/s 747 mmHg 84%
    08:00 +10°C° 0.1 mm 9 m/s 748 mmHg 82%
    09:00 +11°C° 0.2 mm 10 m/s 749 mmHg 74%
    10:00 +12°C° 0.2 mm 10 m/s 749 mmHg 66%
    11:00 +13°C° 0.2 mm 11 m/s 750 mmHg 58%
    12:00 +13°C° 0.1 mm 10 m/s 750 mmHg 57%
    13:00 +13°C° 0.1 mm 10 m/s 750 mmHg 57%
    14:00 +15°C° 0.1 mm 9 m/s 750 mmHg 56%
    15:00 +13°C° 0 mm 8 m/s 750 mmHg 59%
    16:00 +14°C° 0 mm 6 m/s 750 mmHg 62%
    17:00 +13°C° 0 mm 5 m/s 750 mmHg 64%
    18:00 +13°C° 0 mm 6 m/s 750 mmHg 69%
    19:00 +11°C° 0 mm 8 m/s 750 mmHg 73%
    20:00 +10°C° 0 mm 9 m/s 750 mmHg 77%
    21:00 +9°C° 0.4 mm 10 m/s 750 mmHg 80%
    22:00 +8°C° 0.4 mm 10 m/s 750 mmHg 83%
    23:00 +8°C° 0.4 mm 10 m/s 750 mmHg 85%

    31 Août, Samedi

    Heure Température Précipitation Vent Pression Humidité
    00:00 +8°C° 0.1 mm 10 m/s 750 mmHg 84%
    01:00 +9°C° 0.1 mm 10 m/s 751 mmHg 82%
    02:00 +10°C° 0.1 mm 9 m/s 751 mmHg 80%
    03:00 +10°C° 0.1 mm 9 m/s 752 mmHg 79%
    04:00 +10°C° 0.1 mm 8 m/s 752 mmHg 77%
    05:00 +10°C° 0.1 mm 8 m/s 752 mmHg 75%
    06:00 +10°C° 0.6 mm 7 m/s 752 mmHg 80%
    07:00 +10°C° 0.6 mm 7 m/s 753 mmHg 85%
    08:00 +10°C° 0.6 mm 6 m/s 753 mmHg 91%
    09:00 +10°C° 1.9 mm 6 m/s 753 mmHg 90%
    10:00 +10°C° 1.9 mm 6 m/s 754 mmHg 89%
    11:00 +11°C° 1.9 mm 6 m/s 754 mmHg 89%
    12:00 +13°C° 0.4 mm 6 m/s 754 mmHg 85%
    13:00 +13°C° 0.4 mm 6 m/s 754 mmHg 81%
    14:00 +14°C° 0.4 mm 5 m/s 754 mmHg 78%
    15:00 +14°C° 0.1 mm 5 m/s 754 mmHg 79%
    16:00 +13°C° 0.1 mm 4 m/s 754 mmHg 80%
    17:00 +13°C° 0.1 mm 3 m/s 754 mmHg 81%
    18:00 +12°C° 0 mm 3 m/s 754 mmHg 83%
    19:00 +12°C° 0 mm 4 m/s 755 mmHg 85%
    20:00 +11°C° 0 mm 4 m/s 755 mmHg 87%
    21:00 +11°C° 0 mm 4 m/s 755 mmHg 89%
    22:00 +10°C° 0 mm 5 m/s 754 mmHg 91%
    23:00 +12°C° 0 mm 5 m/s 754 mmHg 93%
    Voir plus